User: anonymous   Login
Location: Banios
(43.0451°N, 0.2335°E)
Time: 06:27:41
(UTC+00:00)
Language:

N. Korean satellite - Orbit

View from above orbital plane
View from above orbital plane
View from above satellite
View from above satellite

Ground track
Ground track

The orbit data is extracted from the following two-line orbital elements,

1 39026U 12072A   21134.54452849  .00002258  00000-0  78629-4 0  9997
2 39026  97.2438 128.2408 0036922 142.8557 217.5249 15.30060756467846
Epoch (UTC): 14 May 2021 13:04:07
Eccentricity: 0.0036922
inclination: 97.2438°
perigee height: 450 km
apogee height: 501 km
right ascension of ascending node: 128.2408°
argument of perigee: 142.8557°
revolutions per day: 15.30060756
mean anomaly at epoch: 217.5249°
orbit number at epoch: 46784

The dashed part of the orbit path shows where the satellite is in the earth's shadow,  

DLR